EW0898 Weather Reports


time (UTC)temp
F
wind
direction
speed
knots
gust
knots
rain 1hr
in
rain 24hr
in
rain mn
in
humidity
%
barometer
mb
20260507023217 40 355 0.0 1.7 0.00 0.00 0.00 88 1013.2
20260507022215 41 354 0.0 1.7 0.00 0.00 0.00 88 1012.9
20260507021217 41 352 0.0 1.7 0.00 0.00 0.00 89 1012.8
20260507020003 40 355 0.0 0.9 0.00 0.00 0.00 88 1012.9
20260507015003 40 355 0.9 1.7 0.00 0.00 0.00 88 1012.9
20260507014003 39 0 0.0 0.0 0.00 0.00 0.00 87 1012.8
20260507013003 41 355 0.9 1.7 0.00 0.00 0.00 87 1012.7
20260507012003 41 355 0.0 1.7 0.00 0.00 0.00 86 1012.7
20260507011003 42 355 0.9 1.7 0.00 0.00 0.00 85 1012.6
20260507010219 42 356 0.9 2.6 0.00 0.00 0.00 85 1012.7
20260507005003 43 355 0.0 2.6 0.00 0.00 0.00 85 1012.6
20260507004003 43 354 0.9 2.6 0.00 0.00 0.00 85 1012.6
20260507003003 43 355 0.0 2.6 0.00 0.00 0.00 85 1012.5
20260507002003 44 353 0.9 1.7 0.00 0.00 0.00 84 1012.4
20260507001217 44 355 0.0 1.7 0.00 0.00 0.00 84 1012.4
20260507000003 44 0 0.0 0.0 0.00 0.00 0.00 84 1012.6
20260506235003 44 355 0.9 2.6 0.00 0.00 0.00 83 1012.6
20260506234003 45 7 0.9 4.3 0.00 0.00 0.00 83 1012.6
20260506233003 45 11 0.9 2.6 0.00 0.00 0.00 82 1012.6
20260506232218 45 11 0.9 3.5 0.00 0.00 0.00 82 1012.5
20260506231003 45 10 0.9 2.6 0.00 0.00 0.00 82 1012.5
20260506230003 46 10 0.0 2.6 0.00 0.00 0.00 82 1012.6
20260506225003 46 8 0.9 3.5 0.00 0.00 0.00 81 1012.4
20260506224003 46 7 1.7 3.5 0.00 0.00 0.00 81 1012.3
20260506223003 47 10 0.9 3.5 0.00 0.00 0.00 79 1012.4
20260506222003 48 5 2.6 6.1 0.00 0.00 0.00 78 1012.3
20260506221003 48 1 1.7 4.3 0.00 0.00 0.00 77 1012.3
20260506220218 48 3 2.6 6.1 0.00 0.00 0.00 76 1012.3
20260506215003 49 12 2.6 6.1 0.00 0.00 0.00 76 1012.0
20260506214003 49 8 2.6 5.2 0.00 0.00 0.00 76 1012.0
20260506213003 49 12 2.6 4.3 0.00 0.00 0.00 75 1012.0
20260506212003 50 359 2.6 5.2 0.00 0.00 0.00 74 1011.9
20260506211003 50 13 3.5 7.8 0.00 0.00 0.00 73 1011.7
20260506210218 51 12 4.3 7.8 0.00 0.00 0.00 73 1011.7
20260506205003 51 14 4.3 8.7 0.00 0.00 0.00 74 1011.6
20260506204003 51 5 3.5 8.7 0.00 0.00 0.00 75 1011.7
20260506203219 51 5 1.7 7.8 0.00 0.00 0.00 77 1011.5
20260506202003 51 11 1.7 3.5 0.00 0.00 0.00 77 1011.6
20260506201003 51 48 0.9 3.5 0.00 0.00 0.00 77 1011.5
20260506200003 51 58 0.9 2.6 0.00 0.00 0.00 78 1011.3
20260506195219 51 58 1.7 2.6 0.00 0.00 0.00 78 1011.3
20260506194003 51 59 0.9 1.7 0.00 0.00 0.00 76 1011.2
20260506193003 51 59 0.9 1.7 0.00 0.00 0.00 76 1011.1
20260506192003 50 59 0.0 1.7 0.00 0.00 0.00 80 1010.9
20260506191003 50 0 0.0 0.0 0.00 0.00 0.00 79 1010.8
20260506190004 51 0 0.0 0.0 0.00 0.00 0.00 80 1010.6
20260506185003 51 0 0.0 0.0 0.00 0.00 0.00 79 1010.6
20260506184217 51 0 0.0 0.0 0.00 0.00 0.00 77 1010.7
20260506183003 52 59 0.0 0.9 0.00 0.00 0.00 74 1010.5
20260506182217 52 59 0.9 2.6 0.00 0.00 0.00 70 1010.4
20260506181003 52 61 1.7 2.6 0.00 0.00 0.00 70 1010.3
20260506180004 53 61 0.0 2.6 0.00 0.00 0.00 70 1010.3
20260506175218 53 61 0.9 2.6 0.00 0.00 0.00 70 1010.2
20260506174216 53 60 0.9 2.6 0.00 0.00 0.00 68 1010.0
20260506173218 53 60 1.7 4.3 0.00 0.00 0.00 67 1009.8
20260506172003 53 45 2.6 4.3 0.00 0.00 0.00 68 1009.7
20260506171218 53 49 1.7 4.3 0.00 0.00 0.00 68 1009.8
20260506170003 53 58 2.6 5.2 0.00 0.00 0.00 67 1009.7
20260506165003 53 67 1.7 4.3 0.00 0.00 0.00 68 1009.7
20260506164216 53 64 1.7 5.2 0.00 0.00 0.00 67 1009.7
20260506163003 53 87 1.7 5.2 0.00 0.00 0.00 65 1009.8
20260506162003 53 48 2.6 7.0 0.00 0.00 0.00 67 1009.7
20260506161003 54 67 2.6 7.0 0.00 0.00 0.00 65 1009.7
20260506160003 54 52 3.5 7.8 0.00 0.00 0.00 66 1009.6
20260506155218 54 49 2.6 7.8 0.00 0.00 0.00 65 1009.7
20260506154003 53 52 1.7 5.2 0.00 0.00 0.00 67 1009.7
20260506153003 53 60 2.6 7.0 0.00 0.00 0.00 66 1009.6
20260506152003 53 70 1.7 6.1 0.00 0.00 0.00 66 1009.6
20260506151003 53 57 1.7 7.0 0.00 0.00 0.00 65 1009.5
20260506150003 53 53 3.5 7.8 0.00 0.00 0.00 64 1009.4
20260506145003 53 51 2.6 8.7 0.00 0.00 0.00 65 1009.6
20260506144003 53 63 2.6 6.1 0.00 0.00 0.00 66 1009.4
20260506143003 53 74 4.3 10.4 0.00 0.00 0.00 64 1009.4
20260506142003 53 70 4.3 10.4 0.00 0.00 0.00 64 1009.4
20260506141217 53 69 3.5 11.3 0.00 0.00 0.00 64 1009.4
20260506140003 53 62 4.3 9.6 0.00 0.00 0.00 67 1009.3
20260506135003 53 50 6.1 12.2 0.00 0.00 0.00 67 1009.3
20260506134003 53 48 7.0 14.8 0.00 0.00 0.00 67 1009.4
20260506133003 53 45 6.1 13.0 0.00 0.00 0.00 68 1009.3
20260506132219 53 48 6.1 13.0 0.00 0.00 0.00 68 1009.3
20260506131003 53 46 7.8 13.9 0.00 0.00 0.00 69 1009.3
20260506130003 53 50 7.0 13.9 0.00 0.00 0.00 70 1009.2
20260506125216 52 50 7.0 13.9 0.00 0.00 0.00 70 1009.1
20260506124003 52 38 7.8 14.8 0.00 0.00 0.00 69 1009.1
20260506123003 53 33 8.7 13.9 0.00 0.00 0.00 68 1009.1
20260506122003 52 38 7.8 13.9 0.00 0.00 0.00 66 1009.0
20260506121003 53 27 7.8 14.8 0.00 0.00 0.00 65 1008.9
20260506120003 53 28 7.8 13.9 0.00 0.00 0.00 64 1008.9
20260506115003 53 34 7.8 13.0 0.00 0.00 0.00 65 1008.8
20260506114003 53 32 7.8 13.9 0.00 0.00 0.00 66 1008.8
20260506113003 52 18 6.1 11.3 0.00 0.00 0.00 68 1008.8
20260506112003 52 19 6.1 11.3 0.00 0.00 0.00 68 1008.7
20260506111003 52 12 6.1 11.3 0.00 0.00 0.00 66 1008.8
20260506110218 52 12 7.0 11.3 0.00 0.00 0.00 66 1008.7
20260506105003 52 17 7.8 14.8 0.00 0.00 0.00 65 1008.8
20260506104218 52 24 7.8 13.0 0.00 0.00 0.00 64 1008.6
20260506103003 52 19 7.0 13.9 0.00 0.00 0.00 66 1008.5
20260506102003 53 26 7.0 12.2 0.00 0.00 0.00 66 1008.6
20260506101215 53 27 6.1 11.3 0.00 0.00 0.00 66 1008.5
20260506100217 53 29 7.8 15.6 0.00 0.00 0.00 65 1008.4
20260506095003 53 31 6.1 14.8 0.00 0.00 0.00 67 1008.4
20260506094217 52 32 7.0 12.2 0.00 0.00 0.00 66 1008.3
20260506093003 53 32 6.1 13.9 0.00 0.00 0.00 68 1008.3
20260506092003 53 27 7.0 13.0 0.00 0.00 0.00 69 1008.2
20260506091003 52 35 5.2 13.0 0.00 0.00 0.00 72 1008.2
20260506090003 52 27 5.2 10.4 0.00 0.00 0.00 70 1008.2
20260506085003 52 34 6.1 10.4 0.00 0.00 0.00 70 1008.0
20260506084003 52 30 6.1 10.4 0.00 0.00 0.00 70 1007.9
20260506083003 52 38 5.2 11.3 0.00 0.00 0.00 71 1007.9
20260506082003 51 34 6.1 13.9 0.00 0.00 0.00 70 1007.9
20260506081003 51 20 5.2 9.6 0.00 0.00 0.00 72 1007.9
20260506073219 51 46 5.2 9.6 0.00 0.00 0.00 65 1007.8
20260506072003 51 39 6.1 13.0 0.00 0.00 0.00 67 1007.8
20260506071003 51 30 6.1 12.2 0.00 0.00 0.00 73 1007.7
20260506062003 50 16 6.1 11.3 0.00 0.00 0.00 80 1007.3
20260506061003 50 21 4.3 13.9 0.00 0.00 0.00 81 1007.3
20260506051003 50 7 3.5 7.8 0.00 0.00 0.00 83 1007.1
20260506045003 50 17 3.5 7.8 0.00 0.00 0.00 83 1007.1
20260506044219 50 10 2.6 7.0 0.00 0.00 0.00 82 1007.0
20260506043003 50 2 2.6 5.2 0.00 0.00 0.00 82 1007.1
20260506042003 50 19 2.6 7.8 0.00 0.00 0.00 82 1007.0
20260506041217 50 18 2.6 7.0 0.00 0.00 0.00 82 1007.1
20260506040003 50 18 2.6 7.0 0.00 0.00 0.00 82 1007.1
20260506035003 50 357 2.6 8.7 0.00 0.00 0.00 82 1007.2
20260506034003 50 16 2.6 7.0 0.00 0.00 0.00 82 1007.2
20260506033003 50 10 2.6 7.0 0.00 0.00 0.00 81 1007.3
20260506032003 50 9 2.6 4.3 0.00 0.00 0.00 81 1007.4
20260506031003 50 360 2.6 7.0 0.00 0.00 0.00 81 1007.4
20260506030219 50 357 2.6 7.0 0.00 0.00 0.00 81 1007.6
20260506025003 50 7 2.6 7.0 0.00 0.00 0.00 81 1007.7
20260506024003 50 16 2.6 7.0 0.00 0.00 0.00 80 1007.7